Location: Gilevgi
(36.8751°N, 30.0581°E)
Time: 09:09:22
(UTC+00:00)

CZ-2D R/B - Pass Details

Date: 10 March 2026
Orbit: 524 x 594 km, 98.0° (Epoch: 20 April)

Event Time Altitude Azimuth Distance (km) Brightness Sun altitude
Rises 17:28:19 0° 196° (SSW) 2,780 7.0 -18.0°
Reaches altitude 10° 17:30:47 10° 211° (SSW) 1,897 6.3 -18.4°
Maximum altitude 17:34:06 23° 264° (W) 1,258 6.0 -19.1°
Drops below altitude 10° 17:37:28 10° 318° (NW) 1,929 6.8 -19.8°
Sets 17:40:01 0° 333° (NNW) 2,839 7.5 -20.3°
